This is the latest recevied weather packets stored in our database for station/object K7TUS-6. If no packets are shown the sender has not sent any weather packets the latest 10 day(s).
| Time | Temp. | Humidity | Pressure | Rain* | Wind** | Luminosity | Snow |
|---|---|---|---|---|---|---|---|
| 1777837205 | 16.11° C | 10% | 985.6 hPa | - | - | - | - |
| 1777836904 | 16.11° C | 9% | 984.4 hPa | - | - | - | - |
| 1777836604 | 15.56° C | 9% | 985.1 hPa | - | - | - | - |
| 1777836303 | 15.56° C | 10% | 983.8 hPa | - | - | - | - |
| 1777836002 | 15.56° C | 10% | 984 hPa | - | - | - | - |
| 1777835408 | 16.11° C | 10% | 985.6 hPa | - | - | - | - |
| 1777835107 | 16.11° C | 10% | 985.2 hPa | - | - | - | - |
| 1777834806 | 16.11° C | 10% | 985.5 hPa | - | - | - | - |
| 1777834506 | 16.67° C | 11% | 986.3 hPa | - | - | - | - |
| 1777834205 | 16.67° C | 11% | 985.8 hPa | - | - | - | - |
| 1777833904 | 16.67° C | 10% | 986.5 hPa | - | - | - | - |
| 1777833604 | 16.11° C | 10% | 986.9 hPa | - | - | - | - |
| 1777833303 | 16.67° C | 11% | 984.8 hPa | - | - | - | - |
| 1777833009 | 16.67° C | 11% | 986 hPa | - | - | - | - |
| 1777832708 | 16.11° C | 10% | 987 hPa | - | - | - | - |
| 1777832407 | 16.67° C | 11% | 986.4 hPa | - | - | - | - |
| 1777832107 | 16.67° C | 11% | 986.2 hPa | - | - | - | - |
| 1777831806 | 16.67° C | 9% | 986.3 hPa | - | - | - | - |
| 1777831506 | 17.22° C | 8% | 986.8 hPa | - | - | - | - |
| 1777831205 | 17.78° C | 9% | 986.2 hPa | - | - | - | - |
| 1777830604 | 16.67° C | 10% | 985.9 hPa | - | - | - | - |
| 1777830303 | 17.22° C | 10% | 986.6 hPa | - | - | - | - |
| 1777830003 | 17.22° C | 8% | 986.7 hPa | - | - | - | - |
| 1777829708 | 17.78° C | 9% | 987.7 hPa | - | - | - | - |
| 1777829408 | 17.78° C | 8% | 986.6 hPa | - | - | - | - |
* Rain since midnight (hover to see other rain measurements)
** Current wind speed in m/s (hover to see current wind gust speed)